Location: Córrego Montividiu
(13.2496°S, 48.8603°W)
Time: 12:05:34
(UTC+00:00)

SWARM A - Pass Details

Date: 11 March 2026
Orbit: 415 x 420 km, 87.3° (Epoch: 22 April)

Event Time Altitude Azimuth Distance (km) Brightness Sun altitude
Rises 21:58:13 0° 179° (S) 2,378 8.0 -7.2°
Reaches altitude 10° 22:00:15 10° 179° (S) 1,510 7.0 -7.7°
Maximum altitude 22:03:31 88° 93° (E) 426 4.1 -8.5°
Drops below altitude 10° 22:06:45 10° 359° (N) 1,498 6.9 -9.3°
Sets 22:08:46 0° 359° (N) 2,357 7.9 -9.7°
